Location: Madrid
(40.4167°N, 3.7036°W)
Time: 16:13:28
(UTC+00:00)

ISS - Pass Details

Date: 06 September 2024
Orbit: 414 x 424 km, 51.6° (Epoch: 15 September)

Event Time Altitude Azimuth Distance (km) Brightness Sun altitude
Exits shadow 04:57:34 - 301° (WNW) 1,844 -0.9 -10.0°
Reaches altitude 10° 04:58:23 10° 299° (WNW) 1,519 -1.3 -9.9°
Maximum altitude 05:01:43 54° 221° (SW) 524 -3.6 -9.3°
Drops below altitude 10° 05:05:03 10° 143° (SE) 1,512 -0.6 -8.7°
Sets 05:07:10 0° 139° (SE) 2,374 0.4 -8.3°
